Probability
2 1 0 0 0 1 2 2 1 3 5 5 6 11 14 11 8 5 5 7 11 15 16 15 14 14 16 17 17 16 16 16 16 18 20 20 18 16 14 11 10 11 12 13
3 2 1 0 0 1 2 3 4 5 6 5 6 10 12 10 7 6 5 7 10 14 15 15 15 16 18 18 17 16 15 14 15 16 18 18 18 16 14 12 12 12 13 13
1 1 1 1 1 2 3 4 6 6 6 6 7 9 11 9 8 8 7 9 12 14 16 18 18 19 19 18 16 15 14 12 12 13 14 15 16 15 14 14 13 12 12 12
0 0 1 1 2 2 2 3 4 5 6 7 8 8 9 9 9 10 12 16 18 18 19 20 21 21 17 14 14 13 12 11 11 11 11 11 13 13 13 14 13 12 11 10
0 0 0 0 1 1 1 1 2 4 6 6 6 5 6 9 12 13 17 22 23 21 20 20 20 20 15 12 12 12 11 11 11 11 10 9 10 11 12 13 12 10 9 9
0 0 0 0 0 0 0 1 3 5 6 5 3 3 5 9 13 16 20 23 24 22 21 20 19 18 16 14 13 11 10 10 11 11 10 8 8 9 10 10 9 7 6 7
0 0 0 0 0 1 2 3 5 5 4 3 2 3 5 8 12 16 19 21 21 20 19 19 19 16 16 16 15 13 10 10 10 9 9 9 9 9 8 7 6 5 4 4
0 0 0 1 1 2 4 6 6 4 3 2 2 3 4 7 9 11 15 17 18 17 16 15 15 15 14 16 17 15 13 12 10 9 8 8 9 9 6 4 4 4 3 2
0 0 1 2 2 3 5 6 4 3 1 1 1 2 3 5 6 7 10 13 14 14 13 11 11 13 15 15 16 17 16 15 13 11 9 7 7 6 3 1 1 1 1 1
0 0 1 2 2 3 3 3 2 2 1 0 0 0 1 3 5 6 8 10 11 12 11 9 9 12 14 15 16 18 18 17 14 12 10 8 6 3 1 0 0 0 1 1
1 1 1 1 1 1 1 1 0 0 0 0 0 0 0 1 3 5 7 8 9 10 9 8 8 10 12 14 16 17 17 16 13 10 9 8 6 3 1 0 0 0 1 2
2 2 2 2 1 0 0 0 0 0 0 0 0 0 0 1 2 4 5 6 7 8 8 7 7 8 11 14 16 16 15 13 11 8 8 7 5 3 1 0 0 0 1 1
2 2 3 3 1 0 0 0 0 0 0 0 0 0 0 0 1 2 4 6 6 6 6 6 6 6 9 12 14 14 12 10 8 6 5 5 4 3 2 1 1 0 0 0
2 2 3 2 1 0 0 0 0 0 0 0 0 0 0 0 0 2 3 5 6 5 4 4 4 5 7 9 11 11 9 7 5 3 3 2 2 2 2 2 2 1 0 0
3 3 2 1 0 0 0 0 0 0 0 0 0 0 0 0 1 2 3 4 5 4 3 3 3 4 5 6 8 9 8 5 2 1 1 1 1 1 1 2 2 1 0 0
3 3 3 2 1 1 1 1 1 1 1 1 1 1 2 3 2 2 3 3 3 3 3 4 4 5 5 5 7 8 6 3 1 1 1 0 0 0 0 1 2 1 0 0
3 3 2 2 2 2 2 2 2 2 2 2 3 4 6 6 4 3 2 2 2 3 4 5 4 4 5 6 8 8 5 2 1 2 2 1 1 0 1 2 2 1 0 0
2 1 1 1 2 2 2 3 3 3 3 3 3 5 7 7 6 5 4 3 4 4 5 6 5 5 6 8 9 8 5 2 1 2 2 2 1 0 1 2 2 1 0 0
1 0 0 0 1 1 1 2 3 2 1 1 3 5 7 7 6 6 5 4 4 5 6 6 6 7 8 8 7 7 5 2 1 1 1 1 1 0 0 1 1 1 0 0
0 0 0 0 0 0 0 1 2 1 0 1 2 5 6 6 6 5 4 3 3 5 5 5 6 7 8 6 4 4 4 2 1 0 0 0 0 0 0 0 0 0 0 0
0 0 1 1 1 1 1 1 1 0 0 0 1 3 4 4 3 3 2 1 1 3 3 3 4 5 5 3 2 2 2 2 1 0 0 0 0 0 0 0 0 0 0 0
1 1 2 2 2 2 1 1 1 0 0 0 1 2 2 1 1 1 0 0 0 1 1 3 3 3 2 1 1 2 2 2 1 0 1 1 1 1 1 1 1 1 1 1
2 3 3 3 3 2 2 2 2 1 1 0 1 1 1 0 0 0 0 0 0 0 1 2 2 1 1 1 1 1 1 1 0 0 1 2 2 2 2 2 2 2 2 2
3 3 3 3 3 2 1 2 3 3 2 1 1 1 1 1 0 0 0 0 0 0 0 1 1 0 0 1 0 0 0 0 0 0 1 1 1 1 1 1 1 1 1 1
4 3 3 3 2 1 1 1 2 2 2 1 1 1 2 1 0 0 0 0 0 0 0 0 0 0 0 0 0 0 0 0 0 0 0 0 0 0 0 0 0 0 0 0
5 4 3 2 1 1 0 0 1 1 1 1 1 1 1 1 0 0 0 0 0 0 0 0 0 0 0 0 0 0 0 0 0 0 0 0 0 0 0 1 1 1 1 1
5 5 3 1 1 1 0 0 0 0 0 1 2 1 0 0 0 0 0 0 0 0 0 0 0 0 0 0 0 0 0 0 0 0 0 0 0 0 1 2 2 2 2 2
Wind_Speed
13 12 11 10 11 11 10 8 8 5 2 2 3 4 4 4 3 2 4 4 4 4 4 4 4 3 3 3 3 3 3 3 3 3 3 3 2 2 2 2 3 3 3 3
12 11 11 9 9 10 10 8 7 3 1 2 4 5 5 4 2 2 3 3 3 3 4 3 3 3 3 3 3 3 3 2 3 3 3 2 2 2 2 2 1 2 2 3
11 11 9 8 6 6 4 5 6 4 3 4 5 5 5 4 3 2 3 4 3 3 3 3 3 3 3 3 3 3 3 2 2 3 3 3 2 2 2 2 2 1 2 2
10 9 11 3 3 4 2 4 6 5 5 4 3 5 5 5 3 4 4 4 3 3 3 3 3 3 2 2 3 3 3 2 2 2 2 2 2 2 2 1 1 2 2 3
8 9 6 2 3 6 4 2 5 5 6 5 4 4 4 6 6 5 5 4 3 3 2 2 2 2 2 2 2 2 3 2 2 2 2 2 2 2 1 1 1 2 2 3
7 8 6 3 7 7 2 1 6 7 6 6 5 2 3 6 6 5 5 4 3 3 2 2 1 2 2 1 2 2 2 2 2 2 2 2 2 2 1 1 2 2 2 2
7 7 1 4 7 5 2 2 6 6 7 6 5 4 3 5 5 4 4 3 3 2 2 1 1 1 1 1 1 1 1 1 1 1 1 1 1 1 1 2 2 3 3 2
5 4 1 6 5 5 4 4 5 5 5 5 4 4 3 4 4 3 3 2 2 2 1 1 1 1 1 2 1 1 1 1 1 1 2 2 1 1 2 2 3 3 2 2
3 2 3 5 5 4 4 5 5 4 4 4 4 4 4 4 4 3 2 1 1 1 1 1 1 1 1 2 2 2 1 1 1 2 2 2 3 3 3 2 3 3 3 3
2 0 1 3 4 4 4 4 5 4 3 3 3 4 4 4 4 4 2 2 1 1 1 1 1 2 2 2 2 2 2 2 2 2 3 2 2 3 3 3 3 3 3 3
3 3 2 3 3 3 3 3 4 3 3 4 4 4 4 4 3 3 3 2 2 2 2 2 2 2 2 2 1 2 2 2 3 4 4 3 3 3 4 3 3 3 3 3
2 3 4 3 3 4 4 5 5 5 5 4 4 4 5 4 3 3 3 2 2 3 2 2 2 2 2 2 2 2 3 3 3 4 3 4 4 3 3 4 3 4 4 4
3 4 4 4 4 5 5 5 5 5 5 5 5 5 5 5 4 3 3 3 3 3 3 2 2 3 2 2 3 3 3 4 4 4 4 4 4 4 3 2 3 3 4 4
3 4 4 5 5 6 6 6 5 4 4 4 4 5 4 4 4 4 4 4 3 3 3 3 3 3 3 2 3 4 4 4 4 4 4 4 4 4 3 3 2 3 3 5
4 4 4 4 5 5 5 5 5 5 5 4 4 4 4 4 4 4 4 4 4 3 3 3 3 3 3 3 3 4 4 4 4 4 3 4 3 4 3 3 3 3 2 3
4 5 5 5 6 6 6 5 5 5 5 4 4 4 4 3 3 4 4 4 4 3 3 3 3 3 3 3 3 3 3 4 5 4 4 4 4 3 3 3 3 3 3 2
4 4 5 5 6 6 6 5 5 5 4 4 4 4 4 4 4 4 4 4 4 3 3 3 3 3 4 3 3 3 3 3 4 3 3 4 3 3 3 3 3 3 2 2
4 4 4 5 6 7 7 5 5 5 4 4 3 3 4 5 5 4 4 4 4 3 3 3 3 4 4 3 3 3 3 2 2 3 3 4 4 3 3 3 3 3 2 2
4 4 4 4 5 6 6 6 5 5 5 4 3 3 3 4 4 4 4 5 4 3 3 3 4 4 3 2 4 3 3 3 3 3 3 3 3 3 3 3 3 3 3 2
5 5 5 4 5 6 6 5 5 5 5 4 3 3 3 3 4 4 4 4 3 3 3 3 3 3 3 3 5 4 3 3 3 3 3 3 4 3 3 3 3 3 3 3
5 5 5 5 6 6 6 5 4 5 5 4 3 3 3 3 4 4 4 4 3 3 3 3 2 2 3 3 5 4 3 3 3 3 3 3 3 3 3 3 3 3 3 3
5 5 5 5 6 6 6 5 4 5 4 4 4 3 3 3 4 3 3 3 2 2 3 3 2 2 3 5 4 3 3 3 3 3 3 3 3 3 4 4 4 3 3 3
5 5 5 5 5 6 6 5 4 4 4 4 4 4 3 2 3 3 3 2 1 1 3 2 1 2 4 5 4 3 3 3 3 3 3 3 3 3 3 4 3 3 3 3
4 4 4 5 5 5 5 5 4 3 3 3 3 3 3 3 2 2 2 1 1 2 2 1 2 3 4 4 3 3 2 3 2 2 3 3 3 2 2 2 2 2 2 3
3 3 4 5 5 4 4 4 4 3 3 3 4 4 3 2 3 3 3 2 1 2 2 2 4 5 5 4 3 2 2 2 3 3 2 2 2 1 2 2 2 2 2 3
2 2 3 4 4 3 3 3 3 2 3 3 2 3 3 2 3 2 2 3 3 3 3 2 2 3 4 3 2 2 2 2 3 2 2 2 2 2 2 2 2 2 2 2
2 2 2 3 3 3 3 3 3 3 3 4 4 3 2 2 3 3 3 3 3 2 2 2 2 2 3 2 2 2 2 2 2 2 1 1 1 1 2 3 2 2 2 2
Wind_Direction
273 273 271 273 278 279 274 269 267 285 321 351 354 32 28 38 27 91 111 118 117 117 112 117 124 122 125 124 121 127 142 147 148 146 143 153 169 180 195 212 213 206 211 215
277 272 271 269 276 278 279 286 284 293 316 20 26 43 38 38 18 30 79 84 100 114 122 123 125 132 130 133 138 138 142 147 147 156 165 169 171 168 181 208 222 205 213 225
276 273 271 271 300 289 290 325 318 317 350 26 24 35 43 24 10 14 66 53 64 81 95 111 127 134 143 145 143 146 151 159 164 165 168 175 185 179 194 202 212 219 220 221
272 266 255 264 325 331 355 7 360 2 7 28 47 54 54 34 24 31 44 50 62 68 79 99 115 123 135 155 152 156 159 163 167 168 169 169 183 188 195 206 217 229 233 222
267 263 249 244 301 300 281 316 2 2 9 18 35 74 60 32 23 27 42 47 54 64 75 93 109 132 144 146 153 172 179 181 185 192 192 193 196 199 209 213 231 240 237 228
266 271 271 344 343 324 278 220 16 15 10 2 3 3 11 10 14 26 48 49 47 57 67 80 113 145 168 178 173 191 199 197 189 198 199 204 208 218 223 226 243 251 247 237
263 261 265 352 344 336 300 26 19 11 1 4 0 353 349 355 12 32 38 53 46 46 52 56 107 132 172 199 203 216 208 172 162 168 191 203 197 207 217 235 245 249 251 239
282 267 305 7 12 22 22 7 5 2 5 9 12 17 3 4 7 26 22 29 40 31 15 13 146 156 187 211 212 205 188 181 191 191 220 216 192 211 230 235 238 239 241 252
4 45 44 33 39 37 23 3 354 348 5 5 356 354 349 354 357 346 356 355 351 282 275 275 233 198 215 235 227 208 186 198 222 229 234 216 205 215 230 235 242 248 245 251
322 41 23 26 21 18 17 345 327 327 335 349 355 354 345 342 343 337 346 346 330 290 256 256 263 234 226 231 234 218 191 197 223 235 244 232 222 223 229 235 242 252 257 258
288 315 322 345 4 2 350 330 320 328 342 346 349 348 342 324 334 336 335 336 316 296 276 260 253 245 238 226 244 229 212 220 229 231 230 229 234 244 243 245 240 244 258 267
331 333 317 341 357 358 349 341 340 339 340 339 344 338 338 336 334 321 319 326 324 307 285 271 262 262 249 228 226 231 227 231 238 240 230 226 227 237 257 248 231 237 246 251
321 316 325 336 342 346 342 340 344 346 342 340 349 343 338 329 327 326 323 315 310 306 299 284 265 262 263 240 227 232 244 239 238 242 238 235 235 230 237 248 250 255 251 243
330 326 325 332 338 344 338 339 335 337 339 343 343 343 335 326 328 329 322 316 307 302 300 288 279 277 279 259 236 233 248 247 248 248 247 247 246 242 239 237 230 250 254 235
319 319 320 326 330 328 320 323 329 334 338 341 342 334 324 321 322 325 324 322 313 305 304 302 297 293 287 271 255 246 244 246 246 254 258 258 257 255 249 244 242 241 229 228
317 325 327 328 327 321 316 321 325 326 331 333 328 321 320 316 317 322 322 318 306 299 306 305 301 300 292 277 259 254 246 249 251 251 255 259 262 262 261 255 252 251 247 236
321 319 320 323 324 321 318 322 321 317 320 325 324 319 316 318 317 311 302 302 303 302 306 301 299 291 276 267 255 255 256 250 246 256 266 272 272 265 265 265 262 265 263 245
324 323 320 319 320 318 319 321 316 315 311 310 313 315 314 308 304 304 308 310 306 314 325 318 310 294 277 272 275 266 260 257 251 250 259 269 277 276 272 267 269 271 268 230
324 326 328 330 324 314 313 314 312 307 301 294 293 290 286 295 303 307 310 305 305 313 321 320 313 295 298 318 306 278 263 252 248 254 254 258 258 263 269 268 265 271 267 256
325 333 339 343 331 327 323 319 316 312 308 307 300 299 299 301 299 299 301 300 309 318 315 314 300 301 315 325 313 286 265 251 242 253 260 263 267 265 264 268 269 270 266 262
330 331 335 338 338 333 327 322 320 318 319 321 316 314 314 311 301 301 303 305 322 339 316 298 290 317 323 312 289 276 264 258 243 238 251 260 268 276 281 276 272 273 274 276
333 334 338 338 334 330 330 323 319 316 320 321 316 311 308 305 302 304 301 302 317 355 314 300 321 342 320 297 275 275 275 266 253 248 245 253 257 263 271 277 279 281 281 287
332 335 337 337 333 328 325 324 324 325 325 321 325 322 317 310 294 290 293 297 311 314 296 307 334 323 301 283 281 279 282 276 261 252 254 259 263 264 272 282 290 296 302 303
336 341 337 334 331 330 332 334 332 330 328 318 330 335 320 310 308 305 317 317 302 271 285 277 239 268 273 273 275 280 285 281 281 273 275 280 280 278 285 293 301 306 312 315
340 335 332 328 326 332 333 325 325 332 330 340 352 354 351 349 335 331 327 334 342 289 289 237 230 247 262 273 277 288 304 311 313 308 301 298 296 300 305 311 328 333 329 328
323 309 319 319 321 319 323 329 337 346 344 346 355 357 354 343 333 337 328 318 325 311 299 282 248 247 271 281 284 301 308 306 294 285 289 289 302 315 328 331 332 329 327 336
313 317 316 321 333 337 336 338 343 357 4 1 352 347 345 341 341 337 331 327 322 319 319 314 313 313 313 318 320 307 298 291 292 302 287 279 296 329 340 329 340 355 349 350